Weather in Mbuji-Mayi

Democratic Republic of the Congo     6°09′38″S   23°33′10″E
temp.,
°C
wind,
m/s
gust,
m/s
humid.,
%
clouds,
%
prec.,
mm/h
press.,
hPa
HPBL,
m
20 january, thu
thu2001:00+20s1296100 0.8 101345
04:00+20ssw0093100 0.1 101321
07:00+22ssw118876 0.1 1015138
10:00+28nw126335 1.1 10131009
13:00+29wnw236051 3.0 10101388
16:00+28ssw2267100 0.9 1008676
19:00+22nnw0086100 3.6 101111
22:00+21sw1294100 1.8 101227
21 january, fri
fri2101:00+20sse119599 2.4 101125
04:00+20sw119581 0.7 101213
07:00+22w0091100 1.1 1014146
10:00+25nw1178100 7.1 1013316
13:00+28w126586 7.1 1010895
16:00+25s348261 0.8 1008259
19:00+22ese1189100 2.1 101111
22:00+21nw1192100 2.1 101312
22 january, sat
sat2201:00+21nnw1194100 2.2 101120
04:00+21wnw1195100 0.0 101118
07:00+22w1293100 0.1 1013104
10:00+24wsw3584100 5.2 1013372
13:00+24wsw4680100 6.6 1011565
16:00+23sw3886100 0.4 1009390
19:00+21wsw1192100 0.4 101220
22:00+20sw1194100 0.4 101419
23 january, sun
sun2301:00+20sw1196100 1.4 101219
04:00+20se0097100 0.1 101317
07:00+21ssw119367 0.8 1014172
10:00+26ssw127290 0.9 1013672
13:00+27n126794 1.8 10091045
16:00+23nne1188100 2.2 100928
19:00+21ese119345 2.6 101114
22:00+20ese119693 1.3 101311
24 january, mon
mon2401:00+20e1196100 1.3 101114
04:00+20e119544 0.0 101114
07:00+21ese1290100 0.0 1013150
10:00+23se1182100 0.0 1012340
13:00+29s01597 0.0 10081030
16:00+28ssw22625 0.0 10061105
19:00+22ssw1185100 3.3 100914
22:00+20nw1398100 5.8 1012106